Time,TemperatureF,DewpointF,PressureIn,WindDirection,WindDirectionDegrees,WindSpeedMPH,WindSpeedGustMPH,Humidity,HourlyPrecipIn,Conditions,Clouds,dailyrainin,SoftwareType,DateUTC
2013-08-27 00:01:00,74.6,72.4,30.07,ESE,111,0.0,0.0,93,0.00,,OVC015,0.19,VWS V14.01,2013-08-27 05:01:00,
2013-08-27 00:06:00,74.6,72.4,30.06,ESE,111,0.0,3.0,93,0.00,,OVC050,0.00,VWS V14.01,2013-08-27 05:06:00,
2013-08-27 00:11:00,74.6,72.4,30.06,ESE,109,0.0,3.0,93,0.00,,OVC050,0.00,VWS V14.01,2013-08-27 05:11:00,
2013-08-27 00:16:00,74.6,72.4,30.06,ESE,109,0.0,6.0,93,0.00,,OVC050,0.00,VWS V14.01,2013-08-27 05:16:00,
2013-08-27 00:21:00,74.6,72.4,30.07,ESE,108,0.0,6.0,93,0.00,,OVC050,0.00,VWS V14.01,2013-08-27 05:21:00,
2013-08-27 00:26:00,74.7,72.6,30.07,SE,128,4.0,4.0,93,0.00,,OVC050,0.00,VWS V14.01,2013-08-27 05:26:00,
2013-08-27 00:31:00,74.7,72.6,30.07,ESE,107,0.0,5.0,93,0.00,,OVC050,0.00,VWS V14.01,2013-08-27 05:31:00,
2013-08-27 00:36:00,74.7,72.6,30.07,ESE,118,0.0,4.0,93,0.00,,OVC050,0.00,VWS V14.01,2013-08-27 05:36:00,
2013-08-27 00:41:00,74.7,72.6,30.07,ESE,108,0.0,4.0,93,0.00,,OVC055,0.00,VWS V14.01,2013-08-27 05:41:00,
2013-08-27 00:46:00,74.7,72.6,30.07,ESE,110,0.0,0.0,93,0.00,,OVC055,0.00,VWS V14.01,2013-08-27 05:46:00,
2013-08-27 00:51:00,74.7,72.6,30.07,SE,140,3.0,5.0,93,0.00,,OVC055,0.00,VWS V14.01,2013-08-27 05:51:00,
2013-08-27 00:56:00,74.7,72.6,30.07,ESE,114,0.0,7.0,93,0.00,,OVC010,0.00,VWS V14.01,2013-08-27 05:56:00,
2013-08-27 01:01:00,74.7,72.6,30.07,ESE,115,0.0,7.0,93,0.00,,OVC010,0.00,VWS V14.01,2013-08-27 06:01:00,
2013-08-27 01:06:00,74.7,72.6,30.06,East,98,0.0,5.0,93,0.00,,OVC010,0.00,VWS V14.01,2013-08-27 06:06:00,
2013-08-27 01:11:00,74.6,72.4,30.06,East,98,0.0,5.0,93,0.00,,OVC010,0.00,VWS V14.01,2013-08-27 06:11:00,
2013-08-27 01:16:00,74.6,72.4,30.06,ESE,120,0.0,0.0,93,0.00,,OVC010,0.00,VWS V14.01,2013-08-27 06:16:00,
2013-08-27 01:21:00,74.6,72.4,30.07,ESE,121,1.0,4.0,93,0.00,,OVC010,0.00,VWS V14.01,2013-08-27 06:21:00,
2013-08-27 01:26:00,74.6,72.4,30.07,ESE,109,0.0,6.0,93,0.00,,OVC008,0.00,VWS V14.01,2013-08-27 06:26:00,
2013-08-27 01:31:00,74.6,72.4,30.07,East,100,0.0,6.0,93,0.00,,OVC008,0.00,VWS V14.01,2013-08-27 06:31:00,
2013-08-27 01:36:00,74.6,72.4,30.07,East,98,0.0,0.0,93,0.00,,OVC008,0.00,VWS V14.01,2013-08-27 06:36:00,
2013-08-27 01:41:00,74.6,72.4,30.07,East,98,0.0,0.0,93,0.00,,OVC008,0.00,VWS V14.01,2013-08-27 06:41:00,
2013-08-27 01:46:00,74.6,72.4,30.07,ESE,112,0.0,0.0,93,0.00,,OVC008,0.00,VWS V14.01,2013-08-27 06:46:00,
2013-08-27 01:51:00,74.6,72.4,30.07,ESE,119,0.0,4.0,93,0.00,,OVC008,0.00,VWS V14.01,2013-08-27 06:51:00,
2013-08-27 01:56:00,74.6,72.4,30.07,ESE,119,0.0,0.0,93,0.00,,OVC008,0.00,VWS V14.01,2013-08-27 06:56:00,
2013-08-27 02:01:00,74.6,72.4,30.07,ESE,115,0.0,0.0,93,0.00,,OVC008,0.00,VWS V14.01,2013-08-27 07:01:00,
2013-08-27 02:06:00,74.6,72.4,30.07,ESE,109,0.0,2.0,93,0.00,,OVC008,0.00,VWS V14.01,2013-08-27 07:06:00,
2013-08-27 02:11:00,74.6,72.4,30.07,ESE,109,0.0,2.0,93,0.00,,OVC008,0.00,VWS V14.01,2013-08-27 07:11:00,
2013-08-27 02:16:00,74.6,72.4,30.07,ESE,109,0.0,2.0,93,0.00,,OVC008,0.00,VWS V14.01,2013-08-27 07:16:00,
2013-08-27 02:21:00,74.6,72.4,30.07,ESE,110,0.0,4.0,93,0.00,,OVC010,0.00,VWS V14.01,2013-08-27 07:21:00,
2013-08-27 02:26:00,74.6,72.4,30.07,ESE,119,0.0,3.0,93,0.00,,OVC010,0.00,VWS V14.01,2013-08-27 07:26:00,
2013-08-27 02:31:00,74.6,72.1,30.07,ESE,116,0.0,3.0,92,0.00,,OVC010,0.00,VWS V14.01,2013-08-27 07:31:00,
2013-08-27 02:36:00,74.6,72.1,30.07,ESE,116,0.0,4.0,92,0.00,,OVC010,0.00,VWS V14.01,2013-08-27 07:36:00,
2013-08-27 02:41:00,74.6,72.1,30.07,ESE,115,0.0,4.0,92,0.00,,OVC010,0.00,VWS V14.01,2013-08-27 07:41:00,
2013-08-27 02:46:00,74.6,72.1,30.07,ESE,115,0.0,0.0,92,0.00,,OVC010,0.00,VWS V14.01,2013-08-27 07:46:00,
2013-08-27 02:51:00,74.6,72.1,30.07,ESE,115,0.0,0.0,92,0.00,,OVC011,0.00,VWS V14.01,2013-08-27 07:51:00,
2013-08-27 02:56:00,74.6,72.1,30.07,ESE,113,0.0,0.0,92,0.00,,OVC008,0.00,VWS V14.01,2013-08-27 07:56:00,
2013-08-27 03:01:00,74.6,72.1,30.07,ESE,113,0.0,0.0,92,0.00,,OVC008,0.00,VWS V14.01,2013-08-27 08:01:00,
2013-08-27 03:06:00,74.6,72.1,30.07,ESE,112,0.0,0.0,92,0.00,,OVC008,0.00,VWS V14.01,2013-08-27 08:06:00,
2013-08-27 03:11:00,74.6,72.1,30.07,ESE,113,0.0,0.0,92,0.00,,OVC008,0.00,VWS V14.01,2013-08-27 08:11:00,
2013-08-27 03:16:00,74.6,72.1,30.07,ESE,111,0.0,0.0,92,0.00,,OVC008,0.00,VWS V14.01,2013-08-27 08:16:00,
2013-08-27 03:21:00,74.6,72.1,30.08,ESE,107,0.0,0.0,92,0.00,,OVC008,0.00,VWS V14.01,2013-08-27 08:21:00,
2013-08-27 03:26:00,74.6,72.1,30.08,ESE,103,0.0,0.0,92,0.00,,OVC008,0.00,VWS V14.01,2013-08-27 08:26:00,
2013-08-27 03:31:00,74.6,72.1,30.08,East,100,0.0,4.0,92,0.00,,OVC025,0.00,VWS V14.01,2013-08-27 08:31:00,
2013-08-27 03:36:00,74.6,72.1,30.08,East,100,0.0,0.0,92,0.00,,OVC025,0.00,VWS V14.01,2013-08-27 08:36:00,
2013-08-27 03:41:00,74.6,72.1,30.08,East,100,0.0,0.0,92,0.00,,OVC025,0.00,VWS V14.01,2013-08-27 08:41:00,
2013-08-27 03:46:00,74.6,72.1,30.08,ESE,104,0.0,0.0,92,0.00,,OVC025,0.00,VWS V14.01,2013-08-27 08:46:00,
2013-08-27 03:51:00,74.6,72.1,30.08,ESE,104,0.0,0.0,92,0.00,,OVC025,0.00,VWS V14.01,2013-08-27 08:51:00,
2013-08-27 03:56:00,74.6,72.1,30.08,ESE,104,0.0,0.0,92,0.00,,OVC025,0.00,VWS V14.01,2013-08-27 08:56:00,
2013-08-27 04:01:00,74.6,72.1,30.08,ESE,104,0.0,0.0,92,0.00,,OVC025,0.00,VWS V14.01,2013-08-27 09:01:00,
2013-08-27 04:06:00,74.6,72.1,30.08,ESE,104,0.0,0.0,92,0.00,,OVC025,0.00,VWS V14.01,2013-08-27 09:06:00,
2013-08-27 04:11:00,74.4,71.9,30.08,ESE,104,0.0,0.0,92,0.00,,OVC025,0.00,VWS V14.01,2013-08-27 09:11:00,
2013-08-27 04:16:00,74.4,71.9,30.08,ESE,104,0.0,0.0,92,0.00,,OVC025,0.00,VWS V14.01,2013-08-27 09:16:00,
2013-08-27 04:21:00,74.4,71.9,30.07,ESE,104,0.0,0.0,92,0.00,,OVC025,0.00,VWS V14.01,2013-08-27 09:21:00,
2013-08-27 04:26:00,74.4,71.9,30.07,ESE,104,0.0,0.0,92,0.00,,OVC025,0.00,VWS V14.01,2013-08-27 09:26:00,
2013-08-27 04:31:00,74.4,71.9,30.07,East,101,0.0,4.0,92,0.00,,OVC025,0.00,VWS V14.01,2013-08-27 09:31:00,
2013-08-27 04:36:00,74.2,71.7,30.07,East,88,0.0,3.0,92,0.00,,OVC025,0.00,VWS V14.01,2013-08-27 09:36:00,
2013-08-27 04:41:00,74.2,71.7,30.07,East,88,0.0,3.0,92,0.00,,OVC031,0.00,VWS V14.01,2013-08-27 09:41:00,
2013-08-27 04:46:00,74.2,71.4,30.07,ESE,107,5.0,5.0,91,0.00,,OVC029,0.00,VWS V14.01,2013-08-27 09:46:00,
2013-08-27 04:51:00,74.2,71.4,30.07,ESE,107,0.0,5.0,91,0.00,,OVC029,0.00,VWS V14.01,2013-08-27 09:51:00,
2013-08-27 04:56:00,74.0,71.2,30.07,ESE,119,0.0,0.0,91,0.00,,BKN030,0.00,VWS V14.01,2013-08-27 09:56:00,
2013-08-27 05:01:00,74.0,71.2,30.07,ESE,119,0.0,0.0,91,0.00,,BKN030,0.00,VWS V14.01,2013-08-27 10:01:00,
2013-08-27 05:06:00,74.0,71.2,30.07,ESE,113,0.0,2.0,91,0.00,,BKN030,0.00,VWS V14.01,2013-08-27 10:06:00,
2013-08-27 05:11:00,74.0,71.2,30.07,ESE,109,0.0,5.0,91,0.00,,BKN030,0.00,VWS V14.01,2013-08-27 10:11:00,
2013-08-27 05:16:00,74.0,71.2,30.07,ESE,107,2.0,5.0,91,0.00,,BKN030,0.00,VWS V14.01,2013-08-27 10:16:00,
2013-08-27 05:21:00,74.0,71.2,30.07,ESE,107,0.0,5.0,91,0.00,,BKN030,0.00,VWS V14.01,2013-08-27 10:21:00,
2013-08-27 05:25:00,74.0,71.2,30.07,ESE,107,0.0,5.0,91,0.00,,BKN030,0.00,VWS V14.01,2013-08-27 10:25:00,
2013-08-27 05:30:00,74.0,71.2,30.07,ESE,110,0.0,5.0,91,0.00,,BKN030,0.00,VWS V14.01,2013-08-27 10:30:00,
2013-08-27 05:35:00,74.0,71.2,30.06,ESE,110,0.0,0.0,91,0.00,,BKN030,0.00,VWS V14.01,2013-08-27 10:35:00,
2013-08-27 05:40:00,73.9,71.1,30.06,ESE,110,0.0,4.0,91,0.00,,OVC021,0.00,VWS V14.01,2013-08-27 10:40:00,
2013-08-27 05:45:00,73.9,71.4,30.06,ESE,109,0.0,0.0,92,0.00,,OVC021,0.00,VWS V14.01,2013-08-27 10:45:00,
2013-08-27 05:50:00,74.0,71.5,30.07,ESE,117,0.0,0.0,92,0.00,,OVC021,0.00,VWS V14.01,2013-08-27 10:50:00,
2013-08-27 05:55:00,74.0,71.5,30.07,ESE,117,0.0,0.0,92,0.00,,OVC021,0.00,VWS V14.01,2013-08-27 10:55:00,
2013-08-27 06:00:00,74.0,71.5,30.07,ESE,117,0.0,0.0,92,0.00,,OVC021,0.00,VWS V14.01,2013-08-27 11:00:00,
2013-08-27 06:05:00,74.0,71.5,30.07,ESE,117,0.0,0.0,92,0.00,,OVC021,0.00,VWS V14.01,2013-08-27 11:05:00,
2013-08-27 06:10:00,74.0,71.5,30.07,ESE,116,0.0,0.0,92,0.00,,OVC021,0.00,VWS V14.01,2013-08-27 11:10:00,
2013-08-27 06:15:00,74.0,71.5,30.07,ESE,115,0.0,0.0,92,0.00,,OVC021,0.00,VWS V14.01,2013-08-27 11:15:00,
2013-08-27 06:20:00,74.0,71.5,30.07,ESE,115,0.0,0.0,92,0.00,,OVC021,0.00,VWS V14.01,2013-08-27 11:20:00,
2013-08-27 06:25:00,74.0,71.5,30.07,ESE,115,0.0,0.0,92,0.00,,OVC021,0.00,VWS V14.01,2013-08-27 11:25:00,
2013-08-27 06:30:00,74.0,71.5,30.07,ESE,115,0.0,0.0,92,0.00,,OVC021,0.00,VWS V14.01,2013-08-27 11:30:00,
2013-08-27 06:35:00,74.0,71.5,30.08,ESE,115,0.0,0.0,92,0.00,,OVC021,0.00,VWS V14.01,2013-08-27 11:35:00,
2013-08-27 06:40:00,74.0,71.5,30.08,ESE,115,0.0,0.0,92,0.00,,OVC021,0.00,VWS V14.01,2013-08-27 11:40:00,
2013-08-27 06:45:00,74.0,71.5,30.08,ESE,115,0.0,0.0,92,0.00,,OVC045,0.00,VWS V14.01,2013-08-27 11:45:00,
2013-08-27 06:50:00,74.0,71.5,30.08,ESE,115,0.0,0.0,92,0.00,,OVC045,0.00,VWS V14.01,2013-08-27 11:50:00,
2013-08-27 06:55:00,74.2,71.7,30.08,ESE,115,0.0,0.0,92,0.00,,OVC025,0.00,VWS V14.01,2013-08-27 11:55:00,
2013-08-27 07:00:00,74.2,71.7,30.08,ESE,115,0.0,0.0,92,0.00,,OVC025,0.00,VWS V14.01,2013-08-27 12:00:00,
2013-08-27 07:05:00,74.2,71.7,30.08,ENE,65,0.0,0.0,92,0.00,,OVC025,0.00,VWS V14.01,2013-08-27 12:05:00,
2013-08-27 07:10:00,74.2,71.7,30.08,East,84,0.0,2.0,92,0.00,,OVC025,0.00,VWS V14.01,2013-08-27 12:10:00,
2013-08-27 07:15:00,74.2,71.7,30.08,East,86,0.0,0.0,92,0.00,,OVC025,0.00,VWS V14.01,2013-08-27 12:15:00,
2013-08-27 07:20:00,74.2,71.7,30.09,East,87,0.0,0.0,92,0.00,,OVC025,0.00,VWS V14.01,2013-08-27 12:20:00,
2013-08-27 07:25:00,74.2,71.7,30.09,ESE,113,0.0,1.0,92,0.00,,OVC025,0.00,VWS V14.01,2013-08-27 12:25:00,
2013-08-27 07:30:00,74.2,71.7,30.09,ESE,112,0.0,1.0,92,0.00,,OVC025,0.00,VWS V14.01,2013-08-27 12:30:00,
2013-08-27 07:35:00,74.4,71.9,30.09,ESE,113,0.0,0.0,92,0.00,,OVC025,0.00,VWS V14.01,2013-08-27 12:35:00,
2013-08-27 07:40:00,74.4,71.9,30.09,ESE,113,0.0,0.0,92,0.00,,OVC025,0.00,VWS V14.01,2013-08-27 12:40:00,
2013-08-27 07:45:00,74.4,71.9,30.09,ESE,113,0.0,0.0,92,0.00,,OVC025,0.00,VWS V14.01,2013-08-27 12:45:00,
2013-08-27 07:50:00,74.4,71.9,30.10,ESE,108,0.0,0.0,92,0.00,,OVC025,0.00,VWS V14.01,2013-08-27 12:50:00,
2013-08-27 07:55:00,74.6,72.1,30.10,ESE,108,0.0,0.0,92,0.00,,OVC016,0.00,VWS V14.01,2013-08-27 12:55:00,
2013-08-27 08:00:00,74.6,72.1,30.10,ESE,115,0.0,1.0,92,0.00,,OVC016,0.00,VWS V14.01,2013-08-27 13:00:00,
2013-08-27 08:05:00,74.6,72.1,30.10,ESE,115,0.0,0.0,92,0.00,,OVC016,0.00,VWS V14.01,2013-08-27 13:05:00,
2013-08-27 08:10:00,74.7,72.2,30.10,East,83,0.0,4.0,92,0.00,,OVC016,0.00,VWS V14.01,2013-08-27 13:10:00,
2013-08-27 08:15:00,74.7,72.2,30.10,ESE,110,1.0,2.0,92,0.00,,OVC016,0.00,VWS V14.01,2013-08-27 13:15:00,
2013-08-27 08:20:00,74.7,72.2,30.11,ESE,115,0.0,2.0,92,0.00,,OVC016,0.00,VWS V14.01,2013-08-27 13:20:00,
2013-08-27 08:25:00,74.7,72.2,30.11,ESE,107,0.0,4.0,92,0.00,,OVC014,0.00,VWS V14.01,2013-08-27 13:25:00,
2013-08-27 08:30:00,74.9,72.4,30.11,ESE,103,0.0,4.0,92,0.00,,OVC014,0.00,VWS V14.01,2013-08-27 13:30:00,
2013-08-27 08:35:00,74.9,72.4,30.11,East,85,0.0,0.0,92,0.00,,OVC014,0.00,VWS V14.01,2013-08-27 13:35:00,
2013-08-27 08:40:00,74.9,72.4,30.11,ESE,104,0.0,3.0,92,0.00,,OVC014,0.00,VWS V14.01,2013-08-27 13:40:00,
2013-08-27 08:45:00,75.1,72.6,30.11,ESE,114,0.0,0.0,92,0.00,,OVC014,0.00,VWS V14.01,2013-08-27 13:45:00,
2013-08-27 08:50:00,75.3,72.5,30.11,East,101,0.0,3.0,91,0.00,,OVC014,0.00,VWS V14.01,2013-08-27 13:50:00,
2013-08-27 08:55:00,75.4,72.6,30.11,East,92,3.0,5.0,91,0.00,,OVC006,0.00,VWS V14.01,2013-08-27 13:55:00,
2013-08-27 09:00:00,75.4,72.6,30.11,ENE,75,0.0,7.0,91,0.00,,OVC006,0.00,VWS V14.01,2013-08-27 14:00:00,
2013-08-27 09:05:00,75.6,72.8,30.11,SE,132,0.0,5.0,91,0.00,,OVC006,0.00,VWS V14.01,2013-08-27 14:05:00,
2013-08-27 09:10:00,75.8,73.0,30.11,East,99,0.0,7.0,91,0.00,,OVC006,0.00,VWS V14.01,2013-08-27 14:10:00,
2013-08-27 09:15:00,76.1,73.0,30.11,ESE,119,0.0,4.0,90,0.00,,OVC006,0.00,VWS V14.01,2013-08-27 14:15:00,
2013-08-27 09:20:00,76.3,73.2,30.11,ESE,104,0.0,7.0,90,0.00,,OVC006,0.00,VWS V14.01,2013-08-27 14:20:00,
2013-08-27 09:25:00,76.7,73.2,30.11,East,101,2.0,6.0,89,0.00,,OVC006,0.00,VWS V14.01,2013-08-27 14:25:00,
2013-08-27 09:30:00,76.7,72.9,30.11,ESE,105,2.0,8.0,88,0.00,,OVC006,0.00,VWS V14.01,2013-08-27 14:30:00,
2013-08-27 09:35:00,77.0,73.2,30.12,East,98,0.0,2.0,88,0.00,,OVC006,0.00,VWS V14.01,2013-08-27 14:35:00,
2013-08-27 09:40:00,77.2,73.0,30.12,SE,131,1.0,6.0,87,0.00,,OVC006,0.00,VWS V14.01,2013-08-27 14:40:00,
2013-08-27 09:45:00,77.6,73.1,30.12,ESE,113,0.0,5.0,86,0.00,,OVC006,0.00,VWS V14.01,2013-08-27 14:45:00,
2013-08-27 09:50:00,77.9,72.7,30.12,SE,126,8.0,8.0,84,0.00,,OVC006,0.00,VWS V14.01,2013-08-27 14:50:00,
2013-08-27 09:55:00,78.3,72.7,30.12,ESE,104,2.0,5.0,83,0.00,,BKN012,0.00,VWS V14.01,2013-08-27 14:55:00,
2013-08-27 10:00:00,78.6,72.7,30.12,ESE,114,0.0,6.0,82,0.00,,BKN012,0.00,VWS V14.01,2013-08-27 15:00:00,
2013-08-27 10:05:00,78.6,72.3,30.13,SSE,159,0.0,0.0,81,0.00,,BKN012,0.00,VWS V14.01,2013-08-27 15:05:00,
2013-08-27 10:10:00,79.0,72.7,30.13,East,97,0.0,7.0,81,0.00,,BKN012,0.00,VWS V14.01,2013-08-27 15:10:00,
2013-08-27 10:15:00,79.2,72.1,30.13,ESE,117,0.0,7.0,79,0.00,,BKN012,0.00,VWS V14.01,2013-08-27 15:15:00,
2013-08-27 10:20:00,79.4,72.7,30.13,East,98,0.0,7.0,80,0.00,,BKN012,0.00,VWS V14.01,2013-08-27 15:20:00,
2013-08-27 10:25:00,79.9,72.8,30.13,ESE,110,0.0,5.0,79,0.00,,BKN012,0.00,VWS V14.01,2013-08-27 15:25:00,
2013-08-27 10:30:00,80.3,72.4,30.13,ESE,111,0.0,5.0,77,0.00,,BKN012,0.00,VWS V14.01,2013-08-27 15:30:00,
2013-08-27 10:35:00,80.5,71.8,30.12,East,91,6.0,6.0,75,0.00,,BKN012,0.00,VWS V14.01,2013-08-27 15:35:00,
2013-08-27 10:40:00,80.9,71.8,30.12,ESE,122,0.0,6.0,74,0.00,,BKN012,0.00,VWS V14.01,2013-08-27 15:40:00,
2013-08-27 10:45:00,81.2,72.1,30.12,ESE,121,0.0,0.0,74,0.00,,BKN012,0.00,VWS V14.01,2013-08-27 15:45:00,
2013-08-27 10:50:00,81.8,72.3,30.12,SSE,153,0.0,4.0,73,0.00,,BKN012,0.00,VWS V14.01,2013-08-27 15:50:00,
2013-08-27 10:55:00,82.2,71.9,30.12,SSE,164,0.0,5.0,71,0.00,,BKN012,0.00,VWS V14.01,2013-08-27 15:55:00,
2013-08-27 11:00:00,81.8,71.9,30.12,SE,143,4.0,6.0,72,0.00,,OVC015,0.00,VWS V14.01,2013-08-27 16:00:00,
2013-08-27 11:05:00,82.0,72.5,30.12,ESE,120,1.0,6.0,73,0.00,,OVC015,0.00,VWS V14.01,2013-08-27 16:05:00,
2013-08-27 11:10:00,81.6,72.5,30.12,SSE,163,8.0,13.0,74,0.00,,BKN070,0.00,VWS V14.01,2013-08-27 16:10:00,
2013-08-27 11:15:00,81.2,71.7,30.12,SE,129,4.0,13.0,73,0.00,,BKN022,0.00,VWS V14.01,2013-08-27 16:15:00,
2013-08-27 11:20:00,81.8,71.9,30.13,East,91,10.0,14.0,72,0.00,,BKN022,0.00,VWS V14.01,2013-08-27 16:20:00,
2013-08-27 11:25:00,81.6,71.3,30.13,SE,143,7.0,13.0,71,0.00,,BKN022,0.00,VWS V14.01,2013-08-27 16:25:00,
2013-08-27 11:30:00,81.4,71.1,30.13,SE,137,6.0,13.0,71,0.00,,BKN022,0.00,VWS V14.01,2013-08-27 16:30:00,
2013-08-27 11:35:00,81.8,71.1,30.13,SE,138,1.0,11.0,70,0.00,,BKN022,0.00,VWS V14.01,2013-08-27 16:35:00,
2013-08-27 11:40:00,82.6,71.0,30.13,ESE,104,3.0,11.0,68,0.00,,BKN022,0.00,VWS V14.01,2013-08-27 16:40:00,
2013-08-27 11:45:00,82.6,70.5,30.13,ESE,118,3.0,12.0,67,0.00,,BKN022,0.00,VWS V14.01,2013-08-27 16:45:00,
2013-08-27 11:50:00,82.4,70.8,30.13,East,90,13.0,13.0,68,0.00,,BKN022,0.00,VWS V14.01,2013-08-27 16:50:00,
2013-08-27 11:55:00,82.8,70.7,30.13,SE,130,4.0,9.0,67,0.00,,BKN022,0.00,VWS V14.01,2013-08-27 16:55:00,
2013-08-27 12:00:00,83.4,70.9,30.13,SSE,165,0.0,9.0,66,0.00,,BKN038,0.00,VWS V14.01,2013-08-27 17:00:00,
2013-08-27 12:05:00,84.0,69.6,30.13,SE,129,0.0,10.0,62,0.00,,BKN038,0.00,VWS V14.01,2013-08-27 17:05:00,
2013-08-27 12:10:00,83.8,69.4,30.13,South,182,6.0,17.0,62,0.00,,BKN038,0.00,VWS V14.01,2013-08-27 17:10:00,
2013-08-27 12:15:00,83.6,69.2,30.13,ESE,107,3.0,10.0,62,0.00,,BKN038,0.00,VWS V14.01,2013-08-27 17:15:00,
2013-08-27 12:20:00,83.8,68.9,30.13,SE,140,5.0,10.0,61,0.00,,BKN038,0.00,VWS V14.01,2013-08-27 17:20:00,
2013-08-27 12:25:00,82.6,68.3,30.13,SE,124,6.0,13.0,62,0.00,,BKN044,0.00,VWS V14.01,2013-08-27 17:25:00,
2013-08-27 12:30:00,82.8,68.5,30.13,SE,139,0.0,13.0,62,0.00,,BKN044,0.00,VWS V14.01,2013-08-27 17:30:00,
2013-08-27 12:35:00,82.6,68.7,30.13,ESE,123,1.0,9.0,63,0.00,,BKN044,0.00,VWS V14.01,2013-08-27 17:35:00,
2013-08-27 12:40:00,82.2,68.4,30.13,SSE,159,2.0,9.0,63,0.00,,BKN044,0.00,VWS V14.01,2013-08-27 17:40:00,
2013-08-27 12:45:00,82.0,68.2,30.13,ESE,111,10.0,12.0,63,0.00,,BKN044,0.00,VWS V14.01,2013-08-27 17:45:00,
2013-08-27 12:50:00,81.6,67.8,30.13,ESE,119,9.0,12.0,63,0.00,,BKN044,0.00,VWS V14.01,2013-08-27 17:50:00,
2013-08-27 12:55:00,81.4,68.1,30.13,ESE,113,4.0,11.0,64,0.00,,BKN044,0.00,VWS V14.01,2013-08-27 17:55:00,
2013-08-27 13:00:00,82.0,68.6,30.13,ESE,111,4.0,11.0,64,0.00,,BKN033,0.00,VWS V14.01,2013-08-27 18:00:00,
2013-08-27 13:05:00,82.6,68.7,30.13,ESE,107,3.0,11.0,63,0.00,,BKN033,0.00,VWS V14.01,2013-08-27 18:05:00,
2013-08-27 13:10:00,82.6,68.3,30.13,ESE,116,6.0,12.0,62,0.00,,BKN033,0.00,VWS V14.01,2013-08-27 18:10:00,
2013-08-27 13:15:00,83.0,67.7,30.13,SE,143,5.0,10.0,60,0.00,,BKN033,0.00,VWS V14.01,2013-08-27 18:15:00,
2013-08-27 13:19:00,82.8,66.5,30.13,SE,132,4.0,12.0,58,0.00,,BKN033,0.00,VWS V14.01,2013-08-27 18:19:00,
2013-08-27 13:24:00,83.0,67.2,30.13,SSE,153,1.0,7.0,59,0.00,,BKN033,0.00,VWS V14.01,2013-08-27 18:24:00,
2013-08-27 13:29:00,83.8,65.9,30.13,ESE,119,6.0,9.0,55,0.00,,BKN033,0.00,VWS V14.01,2013-08-27 18:29:00,
2013-08-27 13:34:00,84.1,65.1,30.12,East,97,2.0,7.0,53,0.00,,BKN033,0.00,VWS V14.01,2013-08-27 18:34:00,
2013-08-27 13:39:00,84.5,65.0,30.12,SSE,165,6.0,11.0,52,0.00,,BKN033,0.00,VWS V14.01,2013-08-27 18:39:00,
2013-08-27 13:44:00,84.9,64.8,30.12,ESE,117,6.0,6.0,51,0.00,,BKN033,0.00,VWS V14.01,2013-08-27 18:44:00,
2013-08-27 13:49:00,85.3,65.7,30.11,ESE,111,4.0,9.0,52,0.00,,BKN033,0.00,VWS V14.01,2013-08-27 18:49:00,
2013-08-27 13:54:00,85.1,65.5,30.11,ESE,110,1.0,8.0,52,0.00,,BKN033,0.00,VWS V14.01,2013-08-27 18:54:00,
2013-08-27 13:59:00,85.5,65.9,30.11,ESE,105,5.0,8.0,52,0.00,,SCT030,0.00,VWS V14.01,2013-08-27 18:59:00,
2013-08-27 14:04:00,85.7,66.1,30.11,SSE,161,0.0,10.0,52,0.00,,SCT030,0.00,VWS V14.01,2013-08-27 19:04:00,
2013-08-27 14:09:00,86.1,66.4,30.11,East,92,3.0,10.0,52,0.00,,SCT030,0.00,VWS V14.01,2013-08-27 19:09:00,
2013-08-27 14:14:00,86.5,67.3,30.11,SE,142,3.0,3.0,53,0.00,,SCT030,0.00,VWS V14.01,2013-08-27 19:14:00,
2013-08-27 14:19:00,87.0,67.8,30.09,East,101,0.0,3.0,53,0.00,,SCT030,0.00,VWS V14.01,2013-08-27 19:19:00,
2013-08-27 14:24:00,87.0,67.8,30.09,SE,136,5.0,6.0,53,0.00,,SCT030,0.00,VWS V14.01,2013-08-27 19:24:00,
2013-08-27 14:29:00,87.4,67.6,30.09,SE,126,5.0,11.0,52,0.00,,SCT030,0.00,VWS V14.01,2013-08-27 19:29:00,
2013-08-27 14:34:00,87.4,68.2,30.09,East,95,4.0,6.0,53,0.00,,SCT030,0.00,VWS V14.01,2013-08-27 19:34:00,
2013-08-27 14:39:00,87.0,67.8,30.09,ESE,103,0.0,11.0,53,0.00,,SCT030,0.00,VWS V14.01,2013-08-27 19:39:00,
2013-08-27 14:44:00,86.7,68.6,30.09,ESE,111,5.0,7.0,55,0.00,,SCT030,0.00,VWS V14.01,2013-08-27 19:44:00,
2013-08-27 14:49:00,87.0,68.9,30.08,ESE,123,6.0,9.0,55,0.00,,SCT030,0.00,VWS V14.01,2013-08-27 19:49:00,
2013-08-27 14:54:00,87.2,69.1,30.08,SSE,155,0.0,7.0,55,0.00,,SCT030,0.00,VWS V14.01,2013-08-27 19:54:00,
2013-08-27 14:59:00,87.2,69.1,30.08,SSE,159,3.0,10.0,55,0.00,,SCT030,0.00,VWS V14.01,2013-08-27 19:59:00,
2013-08-27 15:04:00,87.2,69.1,30.08,SE,131,4.0,11.0,55,0.00,,SCT030,0.00,VWS V14.01,2013-08-27 20:04:00,
2013-08-27 15:09:00,87.0,68.9,30.08,SE,138,0.0,12.0,55,0.00,,SCT030,0.00,VWS V14.01,2013-08-27 20:09:00,
2013-08-27 15:14:00,87.2,68.5,30.08,ESE,103,3.0,9.0,54,0.00,,SCT030,0.00,VWS V14.01,2013-08-27 20:14:00,
2013-08-27 15:19:00,87.0,68.9,30.08,ESE,119,7.0,13.0,55,0.00,,SCT030,0.00,VWS V14.01,2013-08-27 20:19:00,
2013-08-27 15:24:00,86.7,69.1,30.08,SE,146,4.0,10.0,56,0.00,,SCT030,0.00,VWS V14.01,2013-08-27 20:24:00,
2013-08-27 15:29:00,86.7,68.1,30.08,East,98,12.0,12.0,54,0.00,,SCT030,0.00,VWS V14.01,2013-08-27 20:29:00,
2013-08-27 15:34:00,86.7,67.5,30.08,East,101,3.0,3.0,53,0.00,,SCT030,0.00,VWS V14.01,2013-08-27 20:34:00,
2013-08-27 15:39:00,87.0,68.4,30.08,SE,132,7.0,7.0,54,0.00,,SCT030,0.00,VWS V14.01,2013-08-27 20:39:00,
2013-08-27 15:44:00,87.2,68.0,30.08,ESE,103,2.0,6.0,53,0.00,,SCT030,0.00,VWS V14.01,2013-08-27 20:44:00,
2013-08-27 15:49:00,87.0,68.4,30.08,SE,144,0.0,13.0,54,0.00,,SCT030,0.00,VWS V14.01,2013-08-27 20:49:00,
2013-08-27 15:54:00,87.2,68.0,30.08,SE,138,5.0,7.0,53,0.00,,SCT030,0.00,VWS V14.01,2013-08-27 20:54:00,
2013-08-27 15:59:00,87.4,68.2,30.08,ESE,115,5.0,9.0,53,0.00,,SCT040,0.00,VWS V14.01,2013-08-27 20:59:00,
2013-08-27 16:04:00,87.8,68.0,30.08,SE,126,5.0,11.0,52,0.00,,SCT040,0.00,VWS V14.01,2013-08-27 21:04:00,
2013-08-27 16:09:00,88.0,67.6,30.08,ESE,105,4.0,11.0,51,0.00,,SCT040,0.00,VWS V14.01,2013-08-27 21:09:00,
2013-08-27 16:14:00,87.8,68.0,30.08,SE,145,6.0,9.0,52,0.00,,SCT040,0.00,VWS V14.01,2013-08-27 21:14:00,
2013-08-27 16:19:00,87.6,67.2,30.08,ESE,106,0.0,12.0,51,0.00,,SCT040,0.00,VWS V14.01,2013-08-27 21:19:00,
2013-08-27 16:24:00,87.8,68.6,30.08,East,101,7.0,8.0,53,0.00,,SCT040,0.00,VWS V14.01,2013-08-27 21:24:00,
2013-08-27 16:29:00,88.0,68.7,30.08,ESE,113,0.0,8.0,53,0.00,,SCT040,0.00,VWS V14.01,2013-08-27 21:29:00,
2013-08-27 16:34:00,88.2,68.4,30.07,ESE,106,0.0,4.0,52,0.00,,SCT040,0.00,VWS V14.01,2013-08-27 21:34:00,
2013-08-27 16:39:00,88.4,68.0,30.07,East,92,0.0,4.0,51,0.00,,SCT040,0.00,VWS V14.01,2013-08-27 21:39:00,
2013-08-27 16:44:00,88.6,68.7,30.07,SE,130,4.0,5.0,52,0.00,,SCT040,0.00,VWS V14.01,2013-08-27 21:44:00,
2013-08-27 16:49:00,88.2,68.9,30.07,East,86,0.0,10.0,53,0.00,,SCT040,0.00,VWS V14.01,2013-08-27 21:49:00,
2013-08-27 16:54:00,88.2,68.9,30.07,ESE,117,5.0,8.0,53,0.00,,SCT040,0.00,VWS V14.01,2013-08-27 21:54:00,
2013-08-27 16:59:00,88.2,68.9,30.07,ESE,119,1.0,8.0,53,0.00,,SCT040,0.00,VWS V14.01,2013-08-27 21:59:00,
2013-08-27 17:04:00,88.4,68.6,30.07,SE,133,5.0,7.0,52,0.00,,SCT040,0.00,VWS V14.01,2013-08-27 22:04:00,
2013-08-27 17:09:00,88.4,68.6,30.07,South,169,0.0,9.0,52,0.00,,SCT040,0.00,VWS V14.01,2013-08-27 22:09:00,
2013-08-27 17:14:00,88.6,68.7,30.07,ESE,112,2.0,4.0,52,0.00,,SCT040,0.00,VWS V14.01,2013-08-27 22:14:00,
2013-08-27 17:19:00,88.6,69.3,30.06,ESE,108,3.0,6.0,53,0.00,,SCT040,0.00,VWS V14.01,2013-08-27 22:19:00,
2013-08-27 17:24:00,88.4,69.1,30.06,SE,126,4.0,8.0,53,0.00,,SCT040,0.00,VWS V14.01,2013-08-27 22:24:00,
2013-08-27 17:29:00,88.2,68.9,30.06,East,95,4.0,8.0,53,0.00,,SCT040,0.00,VWS V14.01,2013-08-27 22:29:00,
2013-08-27 17:34:00,88.0,68.7,30.06,ESE,102,7.0,9.0,53,0.00,,SCT040,0.00,VWS V14.01,2013-08-27 22:34:00,
2013-08-27 17:39:00,87.8,69.1,30.06,SE,138,3.0,9.0,54,0.00,,SCT040,0.00,VWS V14.01,2013-08-27 22:39:00,
2013-08-27 17:44:00,87.8,69.1,30.06,South,190,6.0,7.0,54,0.00,,SCT040,0.00,VWS V14.01,2013-08-27 22:44:00,
2013-08-27 17:49:00,87.6,68.4,30.05,East,97,4.0,10.0,53,0.00,,SCT040,0.00,VWS V14.01,2013-08-27 22:49:00,
2013-08-27 17:54:00,87.4,68.7,30.05,East,94,0.0,5.0,54,0.00,,SCT040,0.00,VWS V14.01,2013-08-27 22:54:00,
2013-08-27 17:59:00,87.4,68.7,30.05,East,88,3.0,8.0,54,0.00,,FEW050,0.00,VWS V14.01,2013-08-27 22:59:00,
2013-08-27 18:04:00,87.2,69.1,30.05,East,101,0.0,10.0,55,0.00,,FEW050,0.00,VWS V14.01,2013-08-27 23:04:00,
2013-08-27 18:09:00,87.2,69.6,30.05,SSE,165,9.0,13.0,56,0.00,,FEW050,0.00,VWS V14.01,2013-08-27 23:09:00,
2013-08-27 18:14:00,87.0,69.9,30.05,ESE,105,1.0,9.0,57,0.00,,FEW050,0.00,VWS V14.01,2013-08-27 23:14:00,
2013-08-27 18:19:00,87.0,69.9,30.05,ESE,111,5.0,9.0,57,0.00,,FEW050,0.00,VWS V14.01,2013-08-27 23:19:00,
2013-08-27 18:24:00,87.0,69.9,30.05,ESE,113,2.0,5.0,57,0.00,,FEW050,0.00,VWS V14.01,2013-08-27 23:24:00,
2013-08-27 18:29:00,87.0,70.4,30.05,ESE,108,3.0,6.0,58,0.00,,FEW050,0.00,VWS V14.01,2013-08-27 23:29:00,
2013-08-27 18:34:00,87.0,71.4,30.04,ESE,105,0.0,5.0,60,0.00,,FEW050,0.00,VWS V14.01,2013-08-27 23:34:00,
2013-08-27 18:39:00,86.7,71.2,30.04,ESE,114,0.0,7.0,60,0.00,,FEW050,0.00,VWS V14.01,2013-08-27 23:39:00,
2013-08-27 18:44:00,86.5,71.5,30.04,East,100,0.0,7.0,61,0.00,,FEW050,0.00,VWS V14.01,2013-08-27 23:44:00,
2013-08-27 18:49:00,86.1,71.6,30.04,ESE,109,2.0,10.0,62,0.00,,FEW050,0.00,VWS V14.01,2013-08-27 23:49:00,
2013-08-27 18:54:00,85.9,71.4,30.04,ESE,107,1.0,5.0,62,0.00,,FEW050,0.00,VWS V14.01,2013-08-27 23:54:00,
2013-08-27 18:59:00,85.5,71.9,30.04,East,94,9.0,11.0,64,0.00,,CLR,0.00,VWS V14.01,2013-08-27 23:59:00,
2013-08-27 19:04:00,84.9,71.8,30.03,East,86,6.0,12.0,65,0.00,,CLR,0.00,VWS V14.01,2013-08-28 00:04:00,
2013-08-27 19:09:00,84.9,71.8,30.03,East,101,0.0,12.0,65,0.00,,CLR,0.00,VWS V14.01,2013-08-28 00:09:00,
2013-08-27 19:14:00,84.7,71.6,30.03,SE,124,1.0,11.0,65,0.00,,CLR,0.00,VWS V14.01,2013-08-28 00:14:00,
2013-08-27 19:19:00,84.7,72.1,30.03,ESE,115,0.0,11.0,66,0.00,,CLR,0.00,VWS V14.01,2013-08-28 00:19:00,
2013-08-27 19:24:00,84.3,71.7,30.03,East,101,8.0,12.0,66,0.00,,CLR,0.00,VWS V14.01,2013-08-28 00:24:00,
2013-08-27 19:29:00,83.8,71.2,30.03,ESE,102,0.0,12.0,66,0.00,,CLR,0.00,VWS V14.01,2013-08-28 00:29:00,
2013-08-27 19:34:00,83.6,71.5,30.04,ESE,109,2.0,6.0,67,0.00,,CLR,0.00,VWS V14.01,2013-08-28 00:34:00,
2013-08-27 19:39:00,83.4,71.7,30.04,ESE,115,5.0,7.0,68,0.00,,CLR,0.00,VWS V14.01,2013-08-28 00:39:00,
2013-08-27 19:44:00,83.0,71.8,30.04,ESE,119,1.0,8.0,69,0.00,,CLR,0.00,VWS V14.01,2013-08-28 00:44:00,
2013-08-27 19:49:00,82.8,71.6,30.05,ESE,107,0.0,9.0,69,0.00,,CLR,0.00,VWS V14.01,2013-08-28 00:49:00,
2013-08-27 19:54:00,82.6,71.8,30.05,ESE,118,2.0,5.0,70,0.00,,CLR,0.00,VWS V14.01,2013-08-28 00:54:00,
2013-08-27 19:59:00,82.4,71.6,30.05,SE,127,0.0,9.0,70,0.00,,CLR,0.00,VWS V14.01,2013-08-28 00:59:00,
2013-08-27 20:04:00,82.2,71.4,30.05,ESE,109,0.0,9.0,70,0.00,,CLR,0.00,VWS V14.01,2013-08-28 01:04:00,
2013-08-27 20:09:00,81.8,71.5,30.05,ESE,107,0.0,10.0,71,0.00,,CLR,0.00,VWS V14.01,2013-08-28 01:09:00,
2013-08-27 20:14:00,81.8,71.9,30.05,SE,128,0.0,4.0,72,0.00,,CLR,0.00,VWS V14.01,2013-08-28 01:14:00,
2013-08-27 20:19:00,81.6,71.7,30.05,ESE,117,2.0,4.0,72,0.00,,CLR,0.00,VWS V14.01,2013-08-28 01:19:00,
2013-08-27 20:24:00,81.4,71.5,30.05,East,99,0.0,3.0,72,0.00,,CLR,0.00,VWS V14.01,2013-08-28 01:24:00,
2013-08-27 20:29:00,81.2,71.7,30.05,East,92,0.0,7.0,73,0.00,,CLR,0.00,VWS V14.01,2013-08-28 01:29:00,
2013-08-27 20:34:00,81.2,72.1,30.05,ESE,102,0.0,0.0,74,0.00,,CLR,0.00,VWS V14.01,2013-08-28 01:34:00,
2013-08-27 20:39:00,81.1,72.0,30.05,ESE,112,0.0,0.0,74,0.00,,CLR,0.00,VWS V14.01,2013-08-28 01:39:00,
2013-08-27 20:44:00,81.1,72.0,30.05,East,101,0.0,0.0,74,0.00,,CLR,0.00,VWS V14.01,2013-08-28 01:44:00,
2013-08-27 20:49:00,80.9,72.2,30.04,ESE,123,0.0,4.0,75,0.00,,CLR,0.00,VWS V14.01,2013-08-28 01:49:00,
2013-08-27 20:54:00,80.9,72.2,30.04,ESE,122,0.0,0.0,75,0.00,,CLR,0.00,VWS V14.01,2013-08-28 01:54:00,
2013-08-27 20:59:00,80.7,72.0,30.04,East,90,0.0,3.0,75,0.00,,CLR,0.00,VWS V14.01,2013-08-28 01:59:00,
2013-08-27 21:04:00,80.5,72.2,30.04,ESE,114,0.0,0.0,76,0.00,,CLR,0.00,VWS V14.01,2013-08-28 02:04:00,
2013-08-27 21:09:00,80.5,72.6,30.04,ESE,111,0.0,5.0,77,0.00,,CLR,0.00,VWS V14.01,2013-08-28 02:09:00,
2013-08-27 21:14:00,80.3,72.4,30.04,ESE,102,3.0,4.0,77,0.00,,CLR,0.00,VWS V14.01,2013-08-28 02:14:00,
2013-08-27 21:19:00,80.3,72.4,30.05,ESE,112,5.0,5.0,77,0.00,,CLR,0.00,VWS V14.01,2013-08-28 02:19:00,
2013-08-27 21:24:00,80.1,72.6,30.05,East,98,0.0,3.0,78,0.00,,CLR,0.00,VWS V14.01,2013-08-28 02:24:00,
2013-08-27 21:29:00,79.9,72.4,30.05,ESE,107,0.0,5.0,78,0.00,,CLR,0.00,VWS V14.01,2013-08-28 02:29:00,
2013-08-27 21:34:00,79.9,72.4,30.05,ESE,110,0.0,5.0,78,0.00,,CLR,0.00,VWS V14.01,2013-08-28 02:34:00,
2013-08-27 21:39:00,79.8,72.7,30.05,ESE,109,0.0,5.0,79,0.00,,CLR,0.00,VWS V14.01,2013-08-28 02:39:00,
2013-08-27 21:44:00,79.8,72.7,30.05,East,98,0.0,0.0,79,0.00,,CLR,0.00,VWS V14.01,2013-08-28 02:44:00,
2013-08-27 21:49:00,79.6,72.5,30.05,ESE,108,2.0,5.0,79,0.00,,CLR,0.00,VWS V14.01,2013-08-28 02:49:00,
2013-08-27 21:54:00,79.6,72.5,30.05,SE,130,0.0,0.0,79,0.00,,CLR,0.00,VWS V14.01,2013-08-28 02:54:00,
2013-08-27 21:59:00,79.4,72.3,30.05,East,95,0.0,2.0,79,0.00,,CLR,0.00,VWS V14.01,2013-08-28 02:59:00,
2013-08-27 22:04:00,79.4,72.3,30.05,ESE,104,0.0,0.0,79,0.00,,CLR,0.00,VWS V14.01,2013-08-28 03:04:00,
2013-08-27 22:09:00,79.2,72.5,30.05,ESE,103,0.0,6.0,80,0.00,,CLR,0.00,VWS V14.01,2013-08-28 03:09:00,
2013-08-27 22:14:00,79.2,72.5,30.05,East,100,0.0,0.0,80,0.00,,CLR,0.00,VWS V14.01,2013-08-28 03:14:00,
2013-08-27 22:19:00,79.0,72.3,30.05,ESE,111,2.0,4.0,80,0.00,,CLR,0.00,VWS V14.01,2013-08-28 03:19:00,
2013-08-27 22:24:00,78.8,72.1,30.05,ESE,107,0.0,0.0,80,0.00,,CLR,0.00,VWS V14.01,2013-08-28 03:24:00,
2013-08-27 22:29:00,78.8,72.1,30.05,ESE,107,0.0,0.0,80,0.00,,CLR,0.00,VWS V14.01,2013-08-28 03:29:00,
2013-08-27 22:34:00,78.6,71.9,30.06,ESE,103,0.0,0.0,80,0.00,,CLR,0.00,VWS V14.01,2013-08-28 03:34:00,
2013-08-27 22:39:00,78.6,72.3,30.06,ESE,103,0.0,0.0,81,0.00,,CLR,0.00,VWS V14.01,2013-08-28 03:39:00,
2013-08-27 22:44:00,78.6,72.3,30.06,ESE,119,0.0,0.0,81,0.00,,CLR,0.00,VWS V14.01,2013-08-28 03:44:00,
2013-08-27 22:49:00,78.5,72.2,30.06,SE,125,0.0,3.0,81,0.00,,CLR,0.00,VWS V14.01,2013-08-28 03:49:00,
2013-08-27 22:54:00,78.5,72.2,30.06,SE,124,0.0,0.0,81,0.00,,CLR,0.00,VWS V14.01,2013-08-28 03:54:00,
2013-08-27 22:59:00,78.3,72.0,30.06,ESE,121,0.0,0.0,81,0.00,,CLR,0.00,VWS V14.01,2013-08-28 03:59:00,
2013-08-27 23:01:00,78.3,72.0,30.06,ESE,121,0.0,0.0,81,0.00,,CLR,0.00,VWS V14.01,2013-08-28 04:01:00,
2013-08-27 23:06:00,78.3,72.4,30.06,ESE,121,0.0,0.0,82,0.00,,CLR,0.00,VWS V14.01,2013-08-28 04:06:00,
2013-08-27 23:11:00,78.1,72.2,30.06,ESE,121,0.0,0.0,82,0.00,,CLR,0.00,VWS V14.01,2013-08-28 04:11:00,
2013-08-27 23:16:00,78.1,72.2,30.06,ESE,121,0.0,0.0,82,0.00,,CLR,0.00,VWS V14.01,2013-08-28 04:16:00,
2013-08-27 23:21:00,77.9,72.0,30.06,ESE,121,0.0,0.0,82,0.00,,CLR,0.00,VWS V14.01,2013-08-28 04:21:00,
2013-08-27 23:22:00,77.9,72.0,30.06,ESE,121,0.0,0.0,82,0.00,,CLR,0.00,VWS V14.01,2013-08-28 04:22:00,
2013-08-27 23:27:00,77.9,72.3,30.06,ESE,114,1.0,3.0,83,0.00,,CLR,0.00,VWS V14.01,2013-08-28 04:27:00,
2013-08-27 23:32:00,77.7,72.1,30.06,ESE,114,0.0,3.0,83,0.00,,CLR,0.00,VWS V14.01,2013-08-28 04:32:00,
2013-08-27 23:37:00,77.7,72.1,30.06,ESE,114,0.0,0.0,83,0.00,,CLR,0.00,VWS V14.01,2013-08-28 04:37:00,
2013-08-27 23:42:00,77.7,72.1,30.06,ESE,114,0.0,0.0,83,0.00,,CLR,0.00,VWS V14.01,2013-08-28 04:42:00,
2013-08-27 23:47:00,77.4,71.8,30.06,ESE,114,0.0,0.0,83,0.00,,CLR,0.00,VWS V14.01,2013-08-28 04:47:00,
2013-08-27 23:52:00,77.4,72.2,30.06,ESE,114,0.0,0.0,84,0.00,,CLR,0.00,VWS V14.01,2013-08-28 04:52:00,
2013-08-27 23:57:00,77.4,72.2,30.06,ESE,114,0.0,0.0,84,0.00,,CLR,0.00,VWS V14.01,2013-08-28 04:57:00,